DW9580 Weather Reports


time (UTC)temp
C
wind
direction
speed
KPH
gust
KPH
rain 1hr
cm
rain 24hr
cm
rain mn
cm
humidity
%
barometer
mb
20260509121205 19 65 3.2 11.3 0.00 0.13 0.05 48 1015.4
20260509120705 19 64 3.2 12.9 0.00 0.13 0.05 48 1015.4
20260509120206 19 90 3.2 12.9 0.00 0.13 0.05 48 1015.5
20260509115205 19 69 3.2 17.7 0.00 0.13 0.05 46 1015.6
20260509114705 18 54 3.2 17.7 0.00 0.13 0.05 49 1015.6
20260509113705 18 105 3.2 11.3 0.00 0.13 0.05 46 1015.7
20260509113205 18 72 3.2 12.9 0.00 0.13 0.05 49 1015.8
20260509112705 18 72 4.8 12.9 0.00 0.13 0.05 50 1015.9
20260509111705 18 59 3.2 8.0 0.00 0.13 0.05 48 1016.0
20260509111205 18 59 3.2 6.4 0.00 0.13 0.05 48 1016.0
20260509110705 18 69 1.6 6.4 0.00 0.15 0.05 50 1016.1
20260509110205 18 70 0.0 6.4 0.00 0.15 0.05 51 1016.2
20260509105205 18 76 0.0 0.0 0.00 0.15 0.05 50 1016.2
20260509104705 18 77 0.0 0.0 0.00 0.15 0.05 52 1016.3
20260509104206 18 101 0.0 0.0 0.00 0.15 0.05 51 1016.4
20260509103704 18 101 0.0 0.0 0.00 0.15 0.05 49 1016.4
20260509103206 18 98 0.0 0.0 0.00 0.15 0.05 51 1016.5
20260509102205 18 94 0.0 0.0 0.00 0.15 0.05 54 1016.5
20260509101205 17 22 0.0 0.0 0.00 0.15 0.05 55 1016.5
20260509100705 17 57 0.0 0.0 0.00 0.15 0.05 55 1016.6
20260509095708 18 63 0.0 0.0 0.00 0.15 0.05 54 1016.6
20260509095205 18 60 0.0 0.0 0.00 0.15 0.05 54 1016.6
20260509094705 17 60 0.0 0.0 0.00 0.15 0.05 52 1016.6
20260509094206 17 60 0.0 0.0 0.03 0.15 0.05 55 1016.6
20260509093706 17 65 0.0 0.0 0.03 0.15 0.05 55 1016.6
20260509092705 17 45 0.0 0.0 0.03 0.15 0.05 54 1016.6
20260509092205 17 46 0.0 0.0 0.03 0.15 0.05 55 1016.6
20260509091705 17 48 0.0 0.0 0.03 0.15 0.05 54 1016.6
20260509091230 17 42 0.0 0.0 0.03 0.15 0.05 55 1016.6
20260509090206 17 84 0.0 0.0 0.03 0.15 0.05 54 1016.6
20260509085705 17 78 0.0 0.0 0.03 0.15 0.05 56 1016.7
20260509085206 17 78 0.0 0.0 0.03 0.15 0.05 57 1016.7
20260509084705 17 80 0.0 0.0 0.00 0.15 0.05 55 1016.7
20260509084205 17 86 0.0 0.0 0.00 0.15 0.05 59 1016.7
20260509083705 17 86 0.0 0.0 0.00 0.15 0.05 59 1016.7
20260509083206 16 86 0.0 0.0 0.00 0.15 0.05 59 1016.8
20260509082705 16 86 0.0 0.0 0.00 0.15 0.05 60 1016.7
20260509082205 16 91 0.0 0.0 0.00 0.15 0.05 62 1016.8
20260509081705 16 66 0.0 0.0 0.00 0.15 0.05 63 1016.8
20260509081233 16 66 0.0 0.0 0.00 0.15 0.05 62 1016.8
20260509080705 16 66 0.0 0.0 0.00 0.15 0.05 62 1016.8
20260509075705 16 66 0.0 0.0 0.00 0.15 0.05 64 1016.9
20260509074705 16 66 0.0 0.0 0.00 0.15 0.05 64 1016.9
20260509074206 16 66 0.0 3.2 0.00 0.15 0.05 64 1016.8
20260509073705 15 66 0.0 4.8 0.00 0.15 0.05 64 1016.8
20260509073204 15 66 0.0 4.8 0.00 0.15 0.05 67 1016.8
20260509072705 15 66 0.0 4.8 0.03 0.15 0.05 69 1016.8
20260509072205 15 66 0.0 0.0 0.03 0.15 0.05 68 1016.8
20260509071705 15 66 0.0 0.0 0.03 0.15 0.05 68 1016.7
20260509070705 14 66 0.0 0.0 0.03 0.15 0.05 68 1016.8
20260509065705 13 66 0.0 0.0 0.03 0.15 0.05 70 1016.8
20260509065205 13 66 0.0 0.0 0.03 0.15 0.05 71 1016.8
20260509064706 13 66 0.0 0.0 0.03 0.15 0.05 72 1016.7
20260509064205 13 66 0.0 0.0 0.03 0.15 0.05 72 1016.8
20260509063205 12 66 0.0 0.0 0.00 0.13 0.03 76 1016.6
20260509062705 12 66 0.0 0.0 0.00 0.13 0.03 77 1016.6
20260509062206 12 66 0.0 0.0 0.00 0.13 0.03 79 1016.6
20260509061705 11 66 0.0 0.0 0.00 0.13 0.03 80 1016.6
20260509061205 11 66 0.0 0.0 0.00 0.13 0.03 81 1016.6
20260509060705 10 66 0.0 0.0 0.00 0.13 0.03 82 1016.6
20260509060206 10 66 0.0 0.0 0.00 0.13 0.03 82 1016.6
20260509055705 9 66 0.0 0.0 0.00 0.15 0.03 82 1016.6
20260509055205 9 66 0.0 0.0 0.00 0.15 0.03 81 1016.7
20260509054706 8 66 0.0 0.0 0.00 0.15 0.03 80 1016.7
20260509054205 8 66 0.0 0.0 0.00 0.15 0.03 79 1016.7
20260509053704 8 66 0.0 0.0 0.00 0.15 0.03 79 1016.7
20260509053205 7 66 0.0 0.0 0.00 0.15 0.03 79 1016.7
20260509052705 7 66 0.0 0.0 0.00 0.15 0.03 80 1016.6
20260509052205 7 66 0.0 0.0 0.00 0.15 0.03 80 1016.6
20260509051704 6 66 0.0 0.0 0.00 0.15 0.03 80 1016.6
20260509051205 6 66 0.0 0.0 0.00 0.15 0.03 80 1016.6
20260509050705 6 66 0.0 0.0 0.00 0.15 0.03 80 1016.5
20260509050205 6 66 0.0 0.0 0.00 0.15 0.03 81 1016.4
20260509045705 6 66 0.0 0.0 0.00 0.15 0.03 81 1016.4
20260509045205 6 66 0.0 0.0 0.00 0.15 0.03 81 1016.4
20260509044705 6 66 0.0 0.0 0.00 0.15 0.03 81 1016.3
20260509044205 6 66 0.0 0.0 0.00 0.15 0.03 81 1016.3
20260509043705 6 66 0.0 0.0 0.00 0.15 0.03 81 1016.3
20260509043208 6 66 0.0 0.0 0.00 0.15 0.03 82 1016.3
20260509042705 6 66 0.0 0.0 0.00 0.15 0.03 81 1016.2
20260509042205 6 66 0.0 0.0 0.00 0.15 0.03 81 1016.2
20260509041705 6 66 0.0 0.0 0.00 0.15 0.03 81 1016.2
20260509041208 6 66 0.0 0.0 0.00 0.15 0.03 81 1016.2
20260509040705 6 66 0.0 0.0 0.00 0.15 0.03 82 1016.2
20260509040205 6 66 0.0 0.0 0.00 0.15 0.03 82 1016.2
20260509035705 6 66 0.0 0.0 0.00 0.15 0.03 82 1016.3
20260509035205 6 66 0.0 0.0 0.00 0.15 0.03 82 1016.2
20260509034209 6 66 0.0 0.0 0.00 0.15 0.03 82 1016.3
20260509033705 6 66 0.0 0.0 0.00 0.15 0.03 82 1016.3
20260509033206 6 66 0.0 0.0 0.00 0.15 0.03 82 1016.3
20260509032705 6 66 0.0 0.0 0.00 0.15 0.03 82 1016.3
20260509032205 6 66 0.0 0.0 0.00 0.15 0.03 82 1016.3
20260509031705 6 66 0.0 0.0 0.00 0.15 0.03 82 1016.4
20260509031205 6 66 0.0 0.0 0.00 0.15 0.03 82 1016.4
20260509030706 6 66 0.0 0.0 0.00 0.15 0.03 82 1016.4
20260509025706 6 66 0.0 0.0 0.00 0.15 0.03 82 1016.5
20260509024705 6 66 0.0 0.0 0.00 0.15 0.03 82 1016.5
20260509024208 6 66 0.0 0.0 0.00 0.15 0.03 82 1016.5
20260509023706 6 66 0.0 0.0 0.00 0.15 0.03 82 1016.6
20260509023206 6 66 0.0 0.0 0.00 0.15 0.03 82 1016.6
20260509022705 6 66 0.0 0.0 0.00 0.15 0.03 82 1016.5
20260509022205 6 66 0.0 0.0 0.00 0.15 0.03 82 1016.5
20260509021705 6 66 0.0 0.0 0.00 0.15 0.03 82 1016.5
20260509021205 6 66 0.0 0.0 0.00 0.15 0.03 82 1016.6
20260509020707 6 66 0.0 0.0 0.00 0.15 0.03 82 1016.6
20260509020205 6 66 0.0 0.0 0.00 0.15 0.03 82 1016.6
20260509015205 7 66 0.0 0.0 0.00 0.15 0.03 82 1016.5
20260509014705 7 66 0.0 0.0 0.00 0.15 0.03 82 1016.6
20260509014205 7 66 0.0 0.0 0.00 0.15 0.03 82 1016.6
20260509013205 7 66 0.0 0.0 0.00 0.15 0.03 82 1016.6
20260509012205 7 66 0.0 0.0 0.03 0.15 0.03 82 1016.6
20260509011705 7 66 0.0 0.0 0.03 0.15 0.03 82 1016.7
20260509011205 7 66 0.0 0.0 0.03 0.15 0.03 82 1016.6
20260509010705 7 66 0.0 0.0 0.03 0.15 0.03 82 1016.7
20260509010206 7 66 0.0 0.0 0.03 0.15 0.03 82 1016.8
20260509005705 7 66 0.0 0.0 0.03 0.15 0.03 82 1016.7
20260509005205 7 66 0.0 0.0 0.03 0.15 0.03 82 1016.7
20260509004705 7 66 0.0 0.0 0.03 0.15 0.03 82 1016.7
20260509004206 7 66 0.0 0.0 0.03 0.15 0.03 82 1016.6
20260509003705 7 66 0.0 0.0 0.03 0.15 0.03 82 1016.6
20260509003208 7 66 0.0 0.0 0.03 0.15 0.03 82 1016.6
20260509002705 7 66 0.0 0.0 0.00 0.15 0.00 82 1016.6
20260509002207 7 66 0.0 0.0 0.00 0.15 0.00 82 1016.6
20260509001706 7 66 0.0 0.0 0.00 0.15 0.00 82 1016.6
20260509001205 8 66 0.0 0.0 0.00 0.15 0.00 82 1016.7
20260509000705 8 66 0.0 0.0 0.00 0.15 0.00 82 1016.7
20260509000206 8 66 0.0 0.0 0.00 0.15 0.00 81 1016.7
20260508235705 8 66 0.0 0.0 0.00 0.15 0.00 82 1016.7
20260508235206 8 66 0.0 0.0 0.00 0.15 0.00 81 1016.8
20260508234706 8 66 0.0 0.0 0.00 0.15 0.00 81 1016.9
20260508234205 8 66 0.0 0.0 0.00 0.15 0.00 81 1016.9
20260508233705 8 66 0.0 0.0 0.00 0.15 0.00 81 1016.9
20260508233205 8 66 0.0 0.0 0.00 0.15 0.00 81 1016.9
20260508232705 8 66 0.0 0.0 0.00 0.15 0.00 81 1016.9
20260508232205 8 66 0.0 0.0 0.00 0.15 0.00 81 1016.9
20260508231705 8 66 0.0 0.0 0.00 0.15 0.00 81 1016.9
20260508231207 8 66 0.0 0.0 0.00 0.15 0.00 81 1017.0
20260508230726 8 66 0.0 0.0 0.00 0.15 0.00 81 1016.9
20260508230230 8 66 0.0 0.0 0.00 0.15 0.00 81 1016.9
20260508225705 9 66 0.0 0.0 0.00 0.15 0.00 80 1016.9
20260508225205 9 66 0.0 0.0 0.00 0.15 0.00 80 1016.9
20260508224705 9 66 0.0 0.0 0.00 0.15 0.00 80 1016.9
20260508223705 9 66 0.0 0.0 0.00 0.15 0.00 79 1016.9
20260508222705 10 66 0.0 0.0 0.00 0.15 0.00 79 1016.8
20260508222206 10 66 0.0 0.0 0.00 0.15 0.00 79 1016.8
20260508221705 10 66 0.0 0.0 0.00 0.15 0.00 79 1016.8
20260508221205 10 66 0.0 0.0 0.00 0.15 0.00 79 1016.7
20260508220204 10 66 0.0 0.0 0.00 0.15 0.15 79 1016.6
20260508215705 10 66 0.0 0.0 0.00 0.15 0.15 79 1016.6
20260508215205 10 66 0.0 0.0 0.00 0.15 0.15 79 1016.6
20260508214706 10 66 0.0 0.0 0.00 0.15 0.15 78 1016.6
20260508214205 10 66 0.0 0.0 0.00 0.15 0.15 78 1016.7
20260508213705 10 66 0.0 0.0 0.00 0.15 0.15 78 1016.7
20260508213209 10 66 0.0 0.0 0.00 0.15 0.15 78 1016.7
20260508212705 10 66 0.0 0.0 0.00 0.15 0.15 78 1016.8
20260508212205 10 66 0.0 0.0 0.00 0.15 0.15 77 1016.8
20260508211706 10 66 0.0 0.0 0.00 0.15 0.15 77 1016.7
20260508210706 11 66 0.0 0.0 0.00 0.15 0.15 76 1016.7
20260508210206 11 66 0.0 0.0 0.00 0.15 0.15 76 1016.7
20260508205706 11 66 0.0 0.0 0.00 0.15 0.15 76 1016.7
20260508204706 11 66 0.0 0.0 0.00 0.18 0.15 75 1016.6
20260508204206 11 66 0.0 0.0 0.03 0.18 0.15 74 1016.7
20260508203705 11 66 0.0 0.0 0.03 0.18 0.15 74 1016.7
20260508203206 11 66 0.0 0.0 0.03 0.18 0.15 74 1016.7
20260508202706 11 66 0.0 0.0 0.03 0.18 0.15 74 1016.6
20260508202205 12 66 0.0 0.0 0.03 0.18 0.15 73 1016.6
20260508201705 12 66 0.0 0.0 0.03 0.18 0.15 72 1016.5
20260508201206 12 66 0.0 0.0 0.03 0.18 0.15 72 1016.6
20260508200705 12 66 0.0 0.0 0.03 0.18 0.15 71 1016.5
20260508195705 12 66 0.0 0.0 0.03 0.18 0.15 70 1016.5
20260508195205 12 66 0.0 0.0 0.03 0.18 0.15 69 1016.5
20260508194705 12 66 0.0 0.0 0.00 0.15 0.15 68 1016.4
20260508194205 13 66 0.0 0.0 0.00 0.15 0.15 68 1016.5
20260508193705 13 66 0.0 0.0 0.00 0.15 0.15 67 1016.4
20260508193205 13 66 0.0 0.0 0.00 0.15 0.15 67 1016.4
20260508192205 13 66 0.0 0.0 0.00 0.15 0.15 66 1016.2
20260508191705 13 66 0.0 0.0 0.00 0.15 0.15 65 1016.2
20260508190706 13 66 0.0 0.0 0.00 0.15 0.15 64 1016.0
20260508190205 14 66 0.0 0.0 0.00 0.15 0.15 63 1016.0
20260508185705 14 66 0.0 0.0 0.00 0.15 0.15 63 1015.9
20260508184705 15 66 0.0 0.0 0.00 0.15 0.15 61 1015.8
20260508184206 15 66 0.0 0.0 0.00 0.15 0.15 60 1015.9
20260508183705 15 66 0.0 4.8 0.00 0.15 0.15 59 1015.8
20260508183205 15 66 0.0 4.8 0.00 0.15 0.15 59 1015.7
20260508182206 15 66 0.0 4.8 0.00 0.15 0.15 57 1015.6
20260508181705 15 66 0.0 4.8 0.00 0.15 0.15 57 1015.6
20260508180706 16 66 0.0 6.4 0.00 0.18 0.15 56 1015.5
20260508180205 16 66 0.0 6.4 0.00 0.18 0.15 55 1015.4
20260508175705 16 66 1.6 6.4 0.00 0.18 0.15 55 1015.4
20260508174706 16 66 1.6 9.7 0.00 0.18 0.15 53 1015.3
20260508174205 16 66 1.6 8.0 0.00 0.18 0.15 53 1015.3
20260508173706 16 63 1.6 8.0 0.00 0.18 0.15 53 1015.3
20260508173208 16 63 3.2 8.0 0.00 0.18 0.15 53 1015.3
20260508172705 16 63 3.2 8.0 0.00 0.18 0.15 54 1015.3
20260508172205 16 74 3.2 8.0 0.00 0.18 0.15 53 1015.2
20260508171705 16 74 3.2 11.3 0.00 0.18 0.15 53 1015.2
20260508171205 16 82 3.2 12.9 0.00 0.18 0.15 52 1015.2
20260508170705 16 82 3.2 12.9 0.00 0.18 0.15 52 1015.2
20260508170206 16 82 3.2 12.9 0.00 0.18 0.15 53 1015.2
20260508165205 16 79 1.6 11.3 0.03 0.18 0.15 55 1015.1
20260508164706 16 79 1.6 14.5 0.03 0.18 0.15 55 1015.1
20260508164205 16 78 3.2 14.5 0.03 0.18 0.15 55 1015.1
20260508163705 16 82 3.2 14.5 0.03 0.18 0.15 54 1015.1
20260508163205 16 86 3.2 14.5 0.03 0.18 0.15 52 1015.1
20260508162705 16 87 3.2 14.5 0.03 0.18 0.15 52 1015.1
20260508162208 17 68 3.2 12.9 0.03 0.18 0.15 50 1015.1
20260508161705 17 68 1.6 9.7 0.03 0.20 0.15 50 1015.1
20260508161206 17 67 3.2 11.3 0.03 0.20 0.15 50 1015.1
20260508160705 17 67 1.6 11.3 0.03 0.20 0.15 50 1015.1
20260508160206 17 79 1.6 11.3 0.00 0.18 0.13 52 1015.2
20260508155205 16 90 1.6 11.3 0.00 0.18 0.13 52 1015.2
20260508154706 16 94 1.6 11.3 0.00 0.18 0.13 52 1015.2
20260508154205 16 97 1.6 16.1 0.00 0.18 0.13 53 1015.2
20260508153705 16 97 1.6 16.1 0.00 0.18 0.13 52 1015.2
20260508153205 16 97 3.2 16.1 0.00 0.18 0.13 53 1015.2
20260508152705 16 97 3.2 12.9 0.00 0.18 0.13 51 1015.2
20260508152206 16 93 1.6 12.9 0.00 0.18 0.13 51 1015.3
20260508151705 16 92 1.6 6.4 0.00 0.18 0.13 50 1015.4
20260508151205 16 92 1.6 11.3 0.00 0.18 0.13 50 1015.4
20260508150205 16 92 3.2 11.3 0.00 0.18 0.13 50 1015.4
20260508145205 16 92 3.2 11.3 0.03 0.18 0.13 48 1015.5
20260508144705 17 89 3.2 9.7 0.03 0.18 0.13 48 1015.4
20260508144205 17 92 1.6 6.4 0.03 0.18 0.13 48 1015.4
20260508143705 16 93 0.0 6.4 0.03 0.18 0.13 48 1015.5
20260508143205 16 93 1.6 12.9 0.03 0.20 0.13 49 1015.5
20260508142705 16 93 3.2 12.9 0.03 0.20 0.13 50 1015.5
20260508142209 16 93 3.2 8.0 0.03 0.20 0.13 49 1015.6
20260508141705 16 84 3.2 8.0 0.03 0.20 0.13 50 1015.6
20260508141207 16 84 3.2 11.3 0.03 0.20 0.13 48 1015.6
20260508140705 16 82 3.2 11.3 0.03 0.20 0.13 51 1015.7
20260508140205 16 82 1.6 11.3 0.00 0.18 0.10 49 1015.7
20260508135705 16 81 1.6 6.4 0.00 0.18 0.10 49 1015.7
20260508135206 16 81 3.2 6.4 0.00 0.18 0.10 48 1015.7
20260508134705 16 80 1.6 11.3 0.00 0.18 0.10 48 1015.6
20260508134206 17 80 1.6 14.5 0.00 0.18 0.10 48 1015.7
20260508133705 17 80 3.2 14.5 0.00 0.20 0.10 47 1015.7
20260508133205 17 80 1.6 9.7 0.00 0.20 0.10 49 1015.7
20260508132706 16 71 1.6 9.7 0.00 0.20 0.10 46 1015.7
20260508132205 16 71 1.6 8.0 0.00 0.20 0.10 45 1015.7
20260508131706 17 71 1.6 9.7 0.00 0.20 0.10 45 1015.8
20260508131205 17 71 1.6 9.7 0.00 0.20 0.10 47 1015.7
20260508130205 17 62 3.2 14.5 0.00 0.20 0.10 49 1015.8
20260508124705 17 105 3.2 9.7 0.00 0.20 0.10 47 1015.8
20260508124205 17 53 3.2 12.9 0.00 0.20 0.10 46 1015.8
20260508123705 16 52 3.2 12.9 0.00 0.20 0.10 51 1015.8
20260508123205 16 49 3.2 12.9 0.00 0.20 0.10 52 1015.8
20260508122705 16 88 3.2 11.3 0.00 0.20 0.10 53 1015.8
20260508122205 16 53 3.2 9.7 0.00 0.20 0.10 53 1015.9